STARLINK-37487, 69840

Orbit data source: Space-Track

STARLINK-37487, 69840 is a payload satellite owned by SpaceX/Seattle (US) in LEO that was launched on Sun, 05 Jul 2026 UTC via an FALCON 9 launch vehicle from the Air Force Eastern Test Range (AFETR). Payload-class satellites include a variety of spacecraft equipped with specific instruments for various scientific and technological missions. These include communications satellites like Starlink; space stations such as the ISS; scientific satellites like the Hubble; Earth observation satellites from companies like Planet Labs, Umbra, and HawkEye 360; GPS; miniature CubeSats for education and research; and military/defense satellites.

Loading next visibility...
Identifier
69840, 2026-154X
Orbit
LEO
Country
Flag of USUS
Related business
Manufacturer
SpaceX/Seattle
Mission
Operational spacecraft
Bus & Motor
STARLINK V2MO, Unknown motor
Mass
575 kg wet, ~530 kg dry
Launch date (UTC)
2026-07-05 (2 months ago)
Launch vehicle
FALCON 9
Launch site
Air Force Eastern Test Range (AFETR)
Object type
Payload
Rocket body
Debris
Shape & HBR
BOX + PAN, 17.7 m
Radar Cross Section
Large (>1 m²)

Expand to show TLE details & history
Last TLE update: 1 day ago

TLE from 1 day ago
0 STARLINK-37487
1 69840U 26154X   26235.63663160  .00023634  00000-0  70818-3 0  9999
2 69840  53.1607 101.7139 0000658  86.9693 273.1385 15.34409857  8961
Epoch: 2026-08-23T15:16Z
TLE epoch observation values (Epoch: 2026-08-23T15:16:44.970Z)
Latitude
-0°
Longitude
-99.40331°
Altitude
463.551 km
Speed
7.636 km/s
True Right ascension
06h 46m 51s
True Declination
0° 00' 00"
Sunlit
Object was in daylight at epoch
Visualization orbit readout
Latitude
Unknown
Longitude
Unknown
Altitude
Unknown
Speed
Unknown
Apparent Right ascension
Unknown
Apparent Declination
Unknown
Sunlit
N/A
Visualization observer readout
Local Sidereal Time
10:26:37
Azimuth
Unknown
Elevation
Unknown
Doppler factor
Unknown
Orbital elements
Apogee altitude
463.381 km
Perigee altitude
462.481 km
Semi-major axis
6,841.068 km
Eccentricity
0.00007
Inclination
53.1607°
RAAN
101.7139°
Arg. of periapsis
86.9693°
True anomaly
273.13097°
Mean anomaly
273.1385°
Eccentric anomaly
273.13474°
Mean motion
3.83581 °/min
Orbital period
93.85 mins
BSTAR
0.00070818
Loading maneuver chart data...
Computing Atmospheric mass density...
Loading historical data...
Loading historical data...
Loading historical data...
Loading historical data...
Loading historical data...
Loading historical data...
Loading historical data...

Documentation

Showing up to 5 results
|